Terminal Aerodrome Forecast
Issued by NWS

Home | Current Version | Previous Version | Text Only | Print | Product List | Glossary On
Versions: 1 2 3 4 5 6 7 8 9 10 11 12 13 14 15
000
FTUS45 KRIW 242323
TAFPNA
TAF
KPNA 242323Z 2500/2524 30008KT P6SM BKN060
     FM250400 30006KT P6SM SCT060
     FM250800 VRB06KT P6SM VCFG FEW005
     FM251700 30007KT P6SM SCT100
      AMD LTD TO CLD VIS AND WIND=

USA.gov is the U.S. government's official web portal to all federal, state and local government web resources and services.